{"data":{"norad_id":54863,"intl_designator":"2022-177AV","name":"STARLINK-5405","alt_names":[],"object_type":"PAYLOAD","status":"ACTIVE","operator":null,"country":"US","launch_date":"2022-12-28","launch_site_code":"AFETR","launch_vehicle":null,"mission":null,"orbit_class":"UNKNOWN","rcs_meters":null,"size_class":null,"mass_kg":null,"dimensions":null,"purposes":["comms"],"wikipedia_slug":null,"has_3d_model":false,"image_url":null,"decayed_at":null,"tle_current":{"epoch":"2026-09-20T22:55:12.995328Z","epoch_age_seconds":53367,"freshness":"FRESH","line1":"1 54863U 22177AV  26263.95501152  .00000304  00000+0  20563-4 0  9998","line2":"2 54863  43.0033  98.8456 0001616 250.9930 109.0747 15.27576830206957","mean_motion":15.2757683,"eccentricity":0.0001616,"inclination_deg":43.0033,"raan_deg":98.8456,"arg_perigee_deg":250.993,"mean_anomaly_deg":109.0747,"bstar":2.0563e-5,"rev_number":20695,"period_min":94.266944334315,"perigee_km":481.94981896942,"apogee_km":484.16735738352,"semimajor_km":6861.1955881765,"source":"CELESTRAK","updated_at":"2026-09-21T09:00:33.160572Z"}}}